Tracking 27107 objects as of 21-Mar-2023
HD Live streaming from Space Station
objects crossing your sky now

FREGAT R/B

Track FREGAT R/B now!


NORAD ID: 40130
Int'l Code: 2014-050C
Perigee: 13,529.5 km
Apogee: 26,074.8 km
Inclination: 49.4 °
Period: 702.3 minutes
Semi major axis: 26173 km
RCS: Unknown
Launch date: August 22, 2014
Source: Commonwealth of Independent States (former USSR) (CIS)
Launch site: FRENCH GUIANA (FRGUI)

Note: This is a ROCKET BODY
Your satellite tracking list
Your tracking list is empty




NASA's NSSDC Master Catalog

Two Line Element Set (TLE):
1 40130U 14050C   23078.38578129  .00000002  00000-0  00000-0 0  9993
2 40130  49.3757 280.7429 2396584 169.7851 196.1238  2.05030674 64200
Source of the keplerian elements: AFSPC